カタログに戻る

STARLINK-3396

運用中通信VLEO
NORAD 51129·PAYLOAD·🇺🇸 United States

打ち上げ Jan 19, 2022 から Cape Canaveral Space Force Station

Loading…

次のパス (今後24時間)

TLE

最新Source: CelesTrak SupGP

元期: Sep 15, 2026, 02:25 UTC

1 51129C 22005AB  26258.10118056  .00003387  00000+0  96904-4 0  2582
2 51129  53.1589 162.9115 0001433  90.5198 241.9652 15.35394941    13

AllMySatでSTARLINK-3396をリアルタイム追跡

Download on the App Store